Weather History for KMEM - January, 2014

Change the Weather History Date:

Friday, January 10, 2014

  Actual Average Record
Temperature  
Mean Temperature 52 °F 41 °F  
Max Temperature 59 °F 49 °F 75 °F (1890)
Min Temperature 45 °F 32 °F -2 °F (1886)
Degree Days  
Heating Degree Days 13 24  
Month to date heating degree days 312 240  
Since 1 July heating degree days 1582 1404  
Cooling Degree Days 0 0  
Month to date cooling degree days 0 0  
Year to date cooling degree days 0 0  
Moisture  
Dew Point 47 °F    
Average Humidity 76    
Maximum Humidity 86    
Minimum Humidity 65    
Precipitation  
Precipitation 1.42 in 0.13 in 3.89 in (1974)
Month to date precipitation 2.58 1.36  
Year to date precipitation 2.58 1.36  
Snow  
Snow 0.00 in 0.10 in 3.60 in (1997)
Month to date snowfall T 0.6  
Since 1 July snowfall T 0.8  
Snow Depth 0.00 in    
Sea Level Pressure  
Sea Level Pressure 29.90 in    
Wind  
Wind Speed 11 mph (SSE)    
Max Wind Speed 21 mph    
Max Gust Speed 30 mph    
Visibility 7 miles    
Events Rain , Thunderstorm    
T = Trace of Precipitation, MM = Missing Value Source: NWS Daily Summary

Daily Weather History Graph

Daily Weather History Graph

Search for Another Location

Airport or City:

Trip Planner

Search our weather history database for the weather conditions in past years. The results will help you decide how hot, cold, wet, or windy it might be!

Date:

Astronomy

Jan. 10, 2014 Rise Set
Actual Time 7:08 AM CST 5:06 PM CST
Civil Twilight 6:40 AM CST 5:34 PM CST
Nautical Twilight 6:09 AM CST 6:05 PM CST
Astronomical Twilight 5:38 AM CST 6:36 PM CST
Moon 1:07 PM CST (1/10) 2:19 AM CST (1/10)
Length of Visible Light 10h 53m
Length of Day
9h 58m
Waxing Gibbous, 75% of the Moon is Illuminated
Jan 10
Waxing Gibbous
Jan 15
Full
Jan 23
Last Quarter
Jan 30
New
Feb 6
First Quarter

Hourly Weather History & Observations

Time (CST) Temp. Windchill Dew Point Humidity Pressure Visibility Wind Dir Wind Speed Gust Speed Precip Events Conditions
12:54 AM 48.0 °F - 37.9 °F 68% 30.17 in 10.0 mi Variable 4.6 mph - N/A   Overcast
1:45 AM 48.2 °F - 39.2 °F 71% 30.15 in 10.0 mi SSE 8.1 mph - N/A   Mostly Cloudy
1:54 AM 48.0 °F - 39.0 °F 71% 30.15 in 10.0 mi SSE 8.1 mph - N/A   Mostly Cloudy
2:54 AM 46.0 °F 43.1 °F 39.0 °F 76% 30.14 in 10.0 mi SSE 5.8 mph - N/A   Scattered Clouds
3:54 AM 46.0 °F 41.4 °F 39.9 °F 79% 30.13 in 10.0 mi SSE 9.2 mph - N/A   Scattered Clouds
4:54 AM 46.0 °F 41.4 °F 39.9 °F 79% 30.11 in 10.0 mi SE 9.2 mph - N/A   Scattered Clouds
5:54 AM 46.0 °F 42.5 °F 41.0 °F 83% 30.11 in 10.0 mi South 6.9 mph - N/A   Mostly Cloudy
6:54 AM 46.0 °F 41.9 °F 43.0 °F 89% 30.11 in 8.0 mi South 8.1 mph - 0.02 in Rain Light Rain
7:10 AM 46.4 °F 42.9 °F 42.8 °F 87% 30.11 in 6.0 mi South 6.9 mph - 0.01 in Rain Light Rain
7:21 AM 46.4 °F 43.5 °F 42.8 °F 87% 30.11 in 5.0 mi SSE 5.8 mph - 0.01 in Rain Light Rain
7:30 AM 46.4 °F 42.4 °F 42.8 °F 87% 30.11 in 5.0 mi SSE 8.1 mph - 0.02 in Rain Light Rain
7:42 AM 46.4 °F 42.4 °F 42.8 °F 87% 30.11 in 6.0 mi SE 8.1 mph - 0.02 in   Overcast
7:54 AM 46.0 °F 41.4 °F 43.0 °F 89% 30.12 in 7.0 mi SSE 9.2 mph - 0.02 in Rain Light Rain
8:54 AM 46.9 °F - 44.1 °F 90% 30.10 in 10.0 mi SSE 10.4 mph - 0.00 in   Overcast
9:54 AM 48.0 °F - 44.1 °F 86% 30.07 in 10.0 mi SE 10.4 mph - N/A   Overcast
10:54 AM 48.9 °F - 45.0 °F 86% 30.03 in 10.0 mi SSE 9.2 mph - N/A   Overcast
11:54 AM 51.1 °F - 46.9 °F 86% 29.98 in 10.0 mi SE 6.9 mph - N/A   Overcast
12:54 PM 54.0 °F - 46.9 °F 77% 29.93 in 10.0 mi SSE 12.7 mph - N/A   Overcast
1:54 PM 55.9 °F - 48.0 °F 75% 29.91 in 10.0 mi South 6.9 mph - N/A   Overcast
2:39 PM 57.2 °F - 48.2 °F 72% 29.88 in 10.0 mi SE 5.8 mph - N/A   Overcast
2:52 PM 57.2 °F - 48.2 °F 72% 29.87 in 10.0 mi SE 6.9 mph - N/A   Overcast
2:54 PM 57.9 °F - 48.9 °F 72% 29.87 in 10.0 mi SE 6.9 mph - N/A   Overcast
3:54 PM 57.0 °F - 48.0 °F 72% 29.82 in 10.0 mi SSE 17.3 mph 23.0 mph N/A   Overcast
4:54 PM 54.0 °F - 46.9 °F 77% 29.78 in 10.0 mi SE 18.4 mph 24.2 mph N/A   Overcast
5:54 PM 54.0 °F - 46.9 °F 77% 29.76 in 10.0 mi SSE 17.3 mph 20.7 mph N/A   Overcast
6:28 PM 53.6 °F - 48.2 °F 82% 29.76 in 7.0 mi South 13.8 mph 21.9 mph 0.02 in Rain Light Rain
6:54 PM 53.1 °F - 48.9 °F 86% 29.76 in 10.0 mi SSE 12.7 mph - 0.03 in   Overcast
7:18 PM 53.6 °F - 50.0 °F 88% 29.75 in 10.0 mi SSE 12.7 mph - N/A   Overcast
7:54 PM 55.0 °F - 50.0 °F 83% 29.75 in 10.0 mi South 12.7 mph 21.9 mph N/A   Overcast
8:26 PM 55.4 °F - 51.8 °F 88% 29.73 in 2.0 mi South 10.4 mph - 0.00 in Rain Light Rain
8:48 PM 53.6 °F - 51.8 °F 94% 29.74 in 2.0 mi NW 16.1 mph 21.9 mph 0.07 in Rain , Thunderstorm Heavy Thunderstorms and Rain
8:50 PM 53.6 °F - 51.8 °F 94% 29.75 in 1.0 mi NW 18.4 mph 21.9 mph 0.09 in Rain , Thunderstorm Heavy Thunderstorms and Rain
8:54 PM 54.0 °F - 52.0 °F 93% 29.75 in 1.0 mi NNW 15.0 mph 21.9 mph 0.16 in Rain , Thunderstorm Heavy Thunderstorms and Rain
9:06 PM 53.6 °F - 51.8 °F 94% 29.75 in 1.5 mi NNW 9.2 mph - 0.26 in Rain , Thunderstorm Heavy Thunderstorms and Rain
9:37 PM 53.6 °F - 51.8 °F 94% 29.73 in 3.0 mi SE 4.6 mph - 0.61 in Rain , Thunderstorm Thunderstorms and Rain
9:48 PM 53.6 °F - 51.8 °F 94% 29.73 in 5.0 mi SSE 5.8 mph - 0.64 in Rain Rain
9:54 PM 54.0 °F - 52.0 °F 93% 29.72 in 6.0 mi SE 9.2 mph - 0.65 in Rain Light Rain
10:31 PM 55.4 °F - 53.6 °F 94% 29.71 in 8.0 mi South 13.8 mph - 0.03 in Rain Rain
10:54 PM 57.0 °F - 54.0 °F 89% 29.69 in 5.0 mi SSW 12.7 mph - 0.10 in Rain Rain
11:36 PM 57.2 °F - 55.4 °F 94% 29.68 in 4.0 mi SW 10.4 mph 19.6 mph 0.09 in Rain Light Rain
11:41 PM 57.2 °F - 55.4 °F 94% 29.69 in 2.0 mi SW 11.5 mph 20.7 mph 0.15 in Rain Heavy Rain
11:46 PM 57.2 °F - 55.4 °F 94% 29.69 in 1.5 mi WSW 11.5 mph 20.7 mph 0.27 in Rain Heavy Rain
11:54 PM 57.9 °F - 55.9 °F 93% 29.69 in 2.0 mi West 16.1 mph 29.9 mph 0.42 in Rain Heavy Rain